Demopolis Municipal Airport, AL

10:30 AM CST on November 12, 2019 (GMT -0600)
Demopolis Municipal Airport

Weather History for KDYA - September, 2019

Change the Weather History Date:

Friday, September 27, 2019

  Actual Average (WUND) Record (WUND)
Temperature  
Mean Temperature 82 °F -  
Max Temperature 97 °F - - (-1)
Min Temperature 69 °F - - (-1)
Cooling Degree Days 18    
Growing Degree Days 32 (Base 50)    
Moisture  
Dew Point 66 °F    
Average Humidity 65    
Maximum Humidity 95    
Minimum Humidity 30    
Precipitation  
Precipitation 0.00 in - - ()
Sea Level Pressure  
Sea Level Pressure 29.93 in    
Wind  
Wind Speed 1 mph ()    
Max Wind Speed 10 mph    
Max Gust Speed 25 mph    
Visibility 10.0 miles    
Events      
Averages and records for this station are not official NWS values.
T = Trace of Precipitation, MM = Missing Value Source: Averaged Metar Reports

Daily Weather History Graph

Daily Weather History Graph

Search for Another Location

Airport or City:

Astronomy

Sep. 27, 2019 Rise Set
Actual Time 6:43 AM CDT 6:42 PM CDT
Civil Twilight 6:18 AM CDT 7:06 PM CDT
Nautical Twilight 5:50 AM CDT 7:35 PM CDT
Astronomical Twilight 5:21 AM CDT 8:03 PM CDT
Moon 5:13 AM CDT (9/27) 6:25 PM CDT (9/27)
Length of Visible Light 12h 47m
Length of Day
11h 58m
Waning Crescent, 2% of the Moon is Illuminated
Sep 27
Waning Crescent
Sep 28
New
Oct 5
First Quarter
Oct 13
Full
Oct 21
Last Quarter

Hourly Weather History & Observations

Time (CDT) Temp. Heat Index Dew Point Humidity Pressure Visibility Wind Dir Wind Speed Gust Speed Precip Events Conditions
12:35 AM 72.0 °F - 69.1 °F 91% 29.91 in 10.0 mi Calm Calm - N/A   Clear
12:55 AM 71.6 °F - 68.9 °F 91% 29.91 in 10.0 mi Calm Calm - N/A   Scattered Clouds
1:15 AM 72.0 °F - 69.3 °F 91% 29.91 in 10.0 mi Calm Calm - N/A   Mostly Cloudy
1:35 AM 72.5 °F - 69.6 °F 91% 29.91 in 10.0 mi Calm Calm - N/A   Overcast
1:55 AM 72.1 °F - 69.4 °F 91% 29.91 in 10.0 mi Calm Calm - N/A   Overcast
2:15 AM 72.3 °F - 69.3 °F 90% 29.90 in 10.0 mi Calm Calm - N/A   Overcast
2:35 AM 72.5 °F - 69.6 °F 91% 29.91 in 10.0 mi Calm Calm - N/A   Mostly Cloudy
2:55 AM 72.3 °F - 69.4 °F 91% 29.90 in 10.0 mi Calm Calm - N/A   Scattered Clouds
3:15 AM 71.6 °F - 69.1 °F 92% 29.91 in 10.0 mi Calm Calm - N/A   Scattered Clouds
3:35 AM 71.6 °F - 69.1 °F 92% 29.91 in 10.0 mi Calm Calm - N/A   Scattered Clouds
3:55 AM 70.9 °F - 68.7 °F 93% 29.91 in 10.0 mi Calm Calm - N/A   Scattered Clouds
4:15 AM 70.3 °F - 68.4 °F 93% 29.91 in 10.0 mi Calm Calm - N/A   Scattered Clouds
4:35 AM 70.7 °F - 68.9 °F 94% 29.92 in 10.0 mi Calm Calm - N/A   Clear
4:55 AM 69.8 °F - 68.2 °F 95% 29.92 in 10.0 mi Calm Calm - N/A   Scattered Clouds
5:15 AM 70.3 °F - 68.7 °F 95% 29.92 in 10.0 mi Calm Calm - N/A   Mostly Cloudy
5:35 AM 70.3 °F - 68.7 °F 95% 29.93 in 10.0 mi Calm Calm - N/A   Mostly Cloudy
5:55 AM 70.5 °F - 68.9 °F 95% 29.94 in 10.0 mi Calm Calm - N/A   Mostly Cloudy
6:15 AM 71.6 °F - 69.8 °F 94% 29.94 in 10.0 mi Calm Calm - N/A   Mostly Cloudy
6:35 AM 70.3 °F - 68.5 °F 94% 29.95 in 10.0 mi Calm Calm - N/A   Mostly Cloudy
7:15 AM 70.7 °F - 69.1 °F 95% 29.96 in 10.0 mi Calm Calm - N/A   Mostly Cloudy
7:35 AM 71.1 °F - 69.6 °F 95% 29.96 in 10.0 mi Calm Calm - N/A   Scattered Clouds
7:55 AM 71.6 °F - 70.0 °F 95% 29.96 in 10.0 mi Calm Calm - N/A   Clear
8:15 AM 74.3 °F - 71.1 °F 90% 29.97 in 10.0 mi Calm Calm - N/A   Clear
8:35 AM 77.5 °F - 71.1 °F 80% 29.97 in 10.0 mi Calm Calm - N/A   Clear
8:55 AM 79.7 °F - 70.5 °F 73% 29.98 in 10.0 mi Calm Calm - N/A   Clear
9:15 AM 81.1 °F 84.9 °F 70.3 °F 70% 29.98 in 7.0 mi SSW 4.6 mph - N/A   Clear
9:35 AM 81.3 °F 84.8 °F 70.0 °F 68% 29.99 in 10.0 mi SW 3.5 mph - N/A   Scattered Clouds
9:55 AM 81.7 °F 85.4 °F 70.2 °F 68% 29.99 in 10.0 mi SSW 3.5 mph - N/A   Scattered Clouds
10:15 AM 84.0 °F 88.1 °F 69.6 °F 62% 29.99 in 10.0 mi Calm Calm - N/A   Mostly Cloudy
10:35 AM 85.6 °F 89.1 °F 68.5 °F 56% 29.98 in 10.0 mi Calm Calm - N/A   Scattered Clouds
10:55 AM 86.7 °F 91.0 °F 69.3 °F 56% 29.98 in 10.0 mi Calm Calm - N/A   Clear
11:15 AM 89.4 °F 92.7 °F 67.6 °F 48% 29.98 in 10.0 mi West 3.5 mph - N/A   Clear
11:35 AM 91.0 °F 94.7 °F 67.5 °F 46% 29.98 in 10.0 mi West 4.6 mph - N/A   Clear
11:55 AM 91.4 °F 94.5 °F 66.6 °F 44% 29.97 in 10.0 mi Calm Calm - N/A   Clear
12:15 PM 91.9 °F 94.5 °F 66.0 °F 42% 29.97 in 10.0 mi WNW 4.6 mph - N/A   Clear
12:35 PM 93.4 °F 95.6 °F 65.3 °F 39% 29.96 in 10.0 mi Calm Calm - N/A   Clear
12:55 PM 95.4 °F 97.6 °F 64.2 °F 36% 29.95 in 10.0 mi Calm Calm - N/A   Scattered Clouds
1:15 PM 94.5 °F 96.1 °F 63.9 °F 36% 29.94 in 10.0 mi Calm Calm - N/A   Scattered Clouds
1:35 PM 94.6 °F 95.9 °F 63.1 °F 35% 29.93 in 10.0 mi SE 3.5 mph - N/A   Scattered Clouds
1:55 PM 94.3 °F 95.8 °F 63.5 °F 36% 29.92 in 10.0 mi SSE 5.8 mph - N/A   Scattered Clouds
2:15 PM 93.2 °F 94.5 °F 63.7 °F 37% 29.92 in 10.0 mi SSE 5.8 mph - N/A   Scattered Clouds
2:35 PM 95.7 °F 97.2 °F 63.5 °F 34% 29.91 in 10.0 mi Calm Calm - N/A   Scattered Clouds
2:55 PM 94.6 °F 95.9 °F 62.8 °F 35% 29.90 in 10.0 mi SW 6.9 mph - N/A   Scattered Clouds
3:15 PM 96.4 °F 97.4 °F 61.9 °F 32% 29.90 in 10.0 mi SSE 10.4 mph - N/A   Scattered Clouds
3:35 PM 96.6 °F 97.7 °F 62.1 °F 32% 29.89 in 10.0 mi SW 9.2 mph - N/A   Mostly Cloudy
3:55 PM 96.6 °F 97.3 °F 61.0 °F 31% 29.89 in 10.0 mi SW 6.9 mph - N/A   Scattered Clouds
4:15 PM 95.4 °F 95.7 °F 61.0 °F 32% 29.89 in 10.0 mi WSW 4.6 mph 25.3 mph N/A   Clear
4:35 PM 96.6 °F 96.8 °F 60.6 °F 30% 29.88 in 10.0 mi South 6.9 mph - N/A   Clear
4:55 PM 95.5 °F 95.2 °F 59.5 °F 30% 29.88 in 10.0 mi SSW 5.8 mph - N/A   Clear
5:15 PM 95.2 °F 95.1 °F 60.3 °F 31% 29.88 in 10.0 mi South 5.8 mph - N/A   Clear
5:35 PM 95.0 °F 94.8 °F 60.1 °F 31% 29.88 in 10.0 mi South 3.5 mph - N/A   Clear
5:55 PM 94.3 °F 94.1 °F 60.1 °F 32% 29.88 in 10.0 mi Calm Calm - N/A   Clear
6:15 PM 93.2 °F 92.9 °F 59.9 °F 33% 29.89 in 10.0 mi South 4.6 mph - N/A   Clear
6:35 PM 91.6 °F 91.3 °F 60.6 °F 35% 29.89 in 10.0 mi Calm Calm - N/A   Clear
6:55 PM 90.0 °F 90.0 °F 61.2 °F 38% 29.90 in 10.0 mi Calm Calm - N/A   Clear
7:15 PM 87.8 °F 88.2 °F 62.1 °F 42% 29.90 in 10.0 mi Calm Calm - N/A   Clear
7:35 PM 85.1 °F 85.9 °F 63.0 °F 47% 29.91 in 10.0 mi Calm Calm - N/A   Clear
7:55 PM 83.8 °F 84.9 °F 63.5 °F 50% 29.91 in 10.0 mi Calm Calm - N/A   Clear
8:15 PM 79.2 °F - 64.8 °F 61% 29.92 in 10.0 mi Calm Calm - N/A   Clear
8:35 PM 77.7 °F - 65.3 °F 65% 29.93 in 10.0 mi Calm Calm - N/A   Clear
8:55 PM 77.7 °F - 65.1 °F 65% 29.94 in 10.0 mi Calm Calm - N/A   Clear
9:15 PM 76.6 °F - 65.3 °F 68% 29.94 in 10.0 mi Calm Calm - N/A   Clear
9:35 PM 75.6 °F - 65.5 °F 71% 29.95 in 10.0 mi Calm Calm - N/A   Clear
9:55 PM 74.7 °F - 65.5 °F 73% 29.95 in 10.0 mi Calm Calm - N/A   Clear
10:15 PM 74.3 °F - 65.5 °F 74% 29.96 in 10.0 mi Calm Calm - N/A   Clear
10:55 PM 73.0 °F - 65.7 °F 78% 29.96 in 10.0 mi Calm Calm - N/A   Clear
11:15 PM 72.1 °F - 65.7 °F 80% 29.96 in 10.0 mi Calm Calm - N/A   Clear
11:35 PM 72.0 °F - 65.8 °F 81% 29.96 in 10.0 mi Calm Calm - N/A   Clear
11:55 PM 71.2 °F - 65.7 °F 82% 29.95 in 10.0 mi Calm Calm - N/A   Clear